CW5193 New Chelsea NF CA current weather conditions

sailwx.info

Wind from 234 at 11 knots gusting 20

Air temperature -2.8° C
Dewpoint -9.2° C

Last reported at 2015-Mar-01 14:42 UTC.
Time now 2015-Mar-01 15:09 UTC

Location: N 48°02' W 053°13'.
View on Google Maps.

See reports from other nearby stations

  
Tides and Currents Weather Stations Pressure Air Temp Water Temp Dewpoint Dewpoint Depression Visibility Wind Speed Wind Dir Waves Ship Positions
date/time (UTC)wind fromknots sea level pressurealtimeterstation pressurevisibilityair tempwater tempwave heightnotes
2015-Mar-01 14:42 234 11 gusting 20 -2.8
2015-Mar-01 14:31 258 10 gusting 24 -3.3
2015-Mar-01 14:21 242 10 gusting 23 -3.3
2015-Mar-01 14:11 256 14 gusting 25 -3.9
2015-Mar-01 14:01 252 16 gusting 22 -3.9
2015-Mar-01 13:51 261 14 gusting 23 -3.9
2015-Mar-01 13:41 235 12 gusting 22 -3.9
2015-Mar-01 13:31 249 13 gusting 28 -4.4
2015-Mar-01 13:22 263 15 gusting 23 -4.4
2015-Mar-01 13:11 262 8 gusting 23 -4.4
2015-Mar-01 13:01 265 10 gusting 21 -4.4
2015-Mar-01 12:51 267 13 gusting 19 -5.0
2015-Mar-01 12:41 256 12 gusting 19 -5.6
2015-Mar-01 12:31 246 12 gusting 19 -5.6
2015-Mar-01 12:21 273 14 gusting 21 -5.6
2015-Mar-01 12:12 263 7 gusting 17 -5.6
2015-Mar-01 12:01 282 11 gusting 17 -5.6
2015-Mar-01 11:52 260 11 gusting 18 -6.1
2015-Mar-01 11:41 271 6 gusting 19 -6.1
2015-Mar-01 11:31 273 12 gusting 15 -6.1
2015-Mar-01 11:21 248 10 gusting 15 -6.7
2015-Mar-01 11:12 260 7 gusting 14 -6.7
2015-Mar-01 11:01 257 8 gusting 14 -7.2
2015-Mar-01 10:51 242 8 gusting 14 -7.2
2015-Mar-01 10:41 261 8 gusting 15 -7.8
2015-Mar-01 10:31 263 7 gusting 14 -7.8
2015-Mar-01 10:21 252 10 gusting 15 -7.8
2015-Mar-01 10:11 253 4 gusting 17 -7.8
2015-Mar-01 10:01 248 8 gusting 19 -7.8
2015-Mar-01 09:51 296 9 gusting 17 -7.8
2015-Mar-01 09:41 221 8 gusting 15 -8.3
2015-Mar-01 09:32 281 6 gusting 15 -8.3
2015-Mar-01 09:21 268 7 gusting 14 -8.3
2015-Mar-01 09:11 263 6 gusting 16 -8.3
2015-Mar-01 09:01 277 5 gusting 15 -7.8
2015-Mar-01 08:51 217 8 gusting 16 -7.8
2015-Mar-01 08:41 253 6 gusting 13 -7.8
2015-Mar-01 08:31 260 8 gusting 17 -7.8
2015-Mar-01 08:21 249 7 gusting 16 -7.8
2015-Mar-01 08:12 250 10 gusting 16 -7.8
2015-Mar-01 08:01 259 11 gusting 19 -8.3
2015-Mar-01 07:51 275 10 gusting 16 -8.3
2015-Mar-01 07:41 281 9 gusting 17 -8.3
2015-Mar-01 07:31 266 8 gusting 18 -7.8
2015-Mar-01 07:21 288 7 gusting 15 -8.3
2015-Mar-01 07:11 275 6 gusting 19 -8.3
2015-Mar-01 07:01 259 7 gusting 19 -8.3
2015-Mar-01 06:51 236 9 gusting 21 -8.3
2015-Mar-01 06:42 298 11 gusting 20 -8.3
2015-Mar-01 06:31 272 6 gusting 17 -8.3
2015-Mar-01 06:21 267 11 gusting 24 -7.8
2015-Mar-01 06:12 259 8 gusting 18 -8.3
2015-Mar-01 06:01 249 8 gusting 22 -8.3
2015-Mar-01 05:51 264 12 gusting 20 -8.3
2015-Mar-01 05:41 254 12 gusting 19 -8.3
2015-Mar-01 05:31 281 13 gusting 20 -8.3
2015-Mar-01 05:21 247 11 gusting 20 -8.3
2015-Mar-01 05:11 259 6 gusting 24 -8.3
2015-Mar-01 05:01 248 8 gusting 17 -8.3
2015-Mar-01 04:51 276 11 gusting 21 -8.3
2015-Mar-01 04:41 259 7 gusting 23 -8.3
2015-Mar-01 04:31 287 13 gusting 20 -7.8
2015-Mar-01 04:22 288 11 gusting 19 -7.8
2015-Mar-01 04:11 242 12 gusting 23 -7.8
2015-Mar-01 04:01 283 13 gusting 23 -8.3
2015-Mar-01 03:52 274 8 gusting 19 -8.3
2015-Mar-01 03:41 258 12 gusting 21 -8.3
2015-Mar-01 03:31 250 13 gusting 22 -8.3
2015-Mar-01 03:21 263 13 gusting 21 -8.3
2015-Mar-01 03:11 267 9 gusting 20 -8.3
2015-Mar-01 03:01 256 13 gusting 20 -8.3
2015-Mar-01 02:51 277 13 gusting 24 -8.3
2015-Mar-01 02:42 262 13 gusting 19 -8.3
2015-Mar-01 02:31 282 12 gusting 19 -8.3
2015-Mar-01 02:21 260 12 gusting 24 -8.3
2015-Mar-01 02:11 279 15 gusting 21 -8.3
2015-Mar-01 02:02 259 13 gusting 21 -8.3
2015-Mar-01 01:51 256 13 gusting 23 -8.3
2015-Mar-01 01:41 261 10 gusting 23 -8.3
2015-Mar-01 01:32 260 13 gusting 24 -8.3
2015-Mar-01 01:21 263 15 gusting 24 -8.9
2015-Mar-01 01:11 238 15 gusting 26 -8.9
2015-Mar-01 01:01 254 12 gusting 21 -8.9
2015-Mar-01 00:52 230 13 gusting 27 -8.9
2015-Mar-01 00:41 255 11 gusting 23 -8.9
2015-Mar-01 00:31 253 10 gusting 22 -8.9
2015-Mar-01 00:21 257 11 gusting 20 -8.9
2015-Mar-01 00:11 248 13 gusting 19 -8.9
2015-Mar-01 00:01 242 10 gusting 20 -8.9
2015-Feb-28 23:51 241 12 gusting 18 -8.9
2015-Feb-28 23:42 272 13 gusting 21 -8.9
2015-Feb-28 23:31 282 13 gusting 23 -8.9
2015-Feb-28 23:22 240 12 gusting 19 -8.9
2015-Feb-28 23:11 253 13 gusting 20 -8.9
2015-Feb-28 23:01 296 10 gusting 22 -8.9
2015-Feb-28 22:51 236 10 gusting 19 -8.9
2015-Feb-28 22:41 273 12 gusting 19 -8.9
2015-Feb-28 22:32 276 6 gusting 16 -8.3
2015-Feb-28 22:21 259 8 gusting 15 -8.3
2015-Feb-28 22:11 252 10 gusting 17 -8.3
2015-Feb-28 22:01 291 8 gusting 18 -8.3
2015-Feb-28 21:51 244 6 gusting 13 -8.3
2015-Feb-28 21:41 286 7 gusting 17 -8.3
2015-Feb-28 21:31 227 6 gusting 18 -8.3
2015-Feb-28 21:22 323 6 gusting 23 -8.3
2015-Feb-28 21:11 240 11 gusting 18 -8.3
2015-Feb-28 21:01 236 9 gusting 20 -8.3
2015-Feb-28 20:52 248 8 gusting 19 -8.3
2015-Feb-28 20:41 251 11 gusting 17 -7.8
2015-Feb-28 20:31 261 9 gusting 19 -7.8
2015-Feb-28 20:21 263 7 gusting 19 -8.3
2015-Feb-28 20:11 263 11 gusting 19 -8.3
2015-Feb-28 20:01 291 10 gusting 18 -7.8
2015-Feb-28 19:51 260 8 gusting 19 -7.8
2015-Feb-28 19:41 273 9 gusting 22 -7.8
2015-Feb-28 19:31 282 9 gusting 17 -7.8
2015-Feb-28 19:22 248 12 gusting 19 -7.8
2015-Feb-28 19:11 271 12 gusting 22 -7.8
2015-Feb-28 19:01 249 7 gusting 20 -7.8
2015-Feb-28 18:51 248 10 gusting 23 -7.8
2015-Feb-28 18:41 269 12 gusting 20 -7.8
2015-Feb-28 18:31 291 6 gusting 19 -7.8
2015-Feb-28 18:21 294 9 gusting 18 -8.3
2015-Feb-28 18:11 261 7 gusting 24 -7.8
2015-Feb-28 18:01 262 6 gusting 19 -7.8
2015-Feb-28 17:51 276 9 gusting 23 -7.8
2015-Feb-28 17:41 263 9 gusting 20 -7.2
2015-Feb-28 17:31 272 9 gusting 26 -7.8
2015-Feb-28 17:21 244 10 gusting 22 -7.8
2015-Feb-28 17:11 257 7 gusting 23 -7.8
2015-Feb-28 17:01 303 13 gusting 21 -8.3
2015-Feb-28 16:51 279 13 gusting 26 -7.8
2015-Feb-28 16:42 263 10 gusting 21 -8.3
2015-Feb-28 16:31 275 12 gusting 21 -7.8
2015-Feb-28 16:21 281 13 gusting 24 -8.3
2015-Feb-28 16:11 280 13 gusting 20 -8.3
2015-Feb-28 16:01 273 10 gusting 20 -7.8
2015-Feb-28 15:51 231 10 gusting 22 -7.8
2015-Feb-28 15:41 254 14 gusting 26 -8.3
2015-Feb-28 15:31 261 12 gusting 23 -8.3
2015-Feb-28 15:21 248 15 gusting 24 -7.8
2015-Feb-28 15:12 256 10 gusting 22 -8.3
2015-Feb-28 15:01 241 11 gusting 19 -8.3
2015-Feb-28 14:51 247 11 gusting 23 -8.9
2015-Feb-28 14:42 269 11 gusting 19 -8.9
2015-Feb-28 14:31 304 8 gusting 19 -8.9
2015-Feb-28 14:21 265 10 gusting 20 -8.9
2015-Feb-28 14:11 281 9 gusting 19 -9.4
2015-Feb-28 14:01 265 11 gusting 19 -9.4
2015-Feb-28 13:51 184 9 gusting 18 -9.4
2015-Feb-28 13:41 247 11 gusting 19 -9.4
2015-Feb-28 13:31 276 10 gusting 21 -10.0
2015-Feb-28 13:21 263 9 gusting 19 -9.4
2015-Feb-28 13:12 272 11 gusting 19 -10.0
2015-Feb-28 13:01 269 6 gusting 19 -10.0
2015-Feb-28 12:51 240 4 gusting 19 -10.0
2015-Feb-28 12:41 269 9 gusting 16 -10.0
2015-Feb-28 12:32 232 6 gusting 19 -10.6
2015-Feb-28 12:21 244 5 gusting 16 -10.6
2015-Feb-28 12:11 246 6 gusting 18 -10.6
2015-Feb-28 12:01 288 8 gusting 17 -10.6
2015-Feb-28 11:51 283 9 gusting 20 -10.6
2015-Feb-28 11:41 269 7 gusting 16 -10.6
2015-Feb-28 11:31 248 5 gusting 18 -10.6
2015-Feb-28 11:21 317 10 gusting 17 -11.1
2015-Feb-28 11:11 229 13 gusting 20 -11.1
2015-Feb-28 11:01 230 7 gusting 20 -11.1
2015-Feb-28 10:51 235 5 gusting 19 -11.1
2015-Feb-28 10:41 305 6 gusting 19 -11.1
2015-Feb-28 10:31 257 9 gusting 18 -11.1
2015-Feb-28 10:21 284 11 gusting 20 -11.1
2015-Feb-28 10:11 275 6 gusting 15 -11.1
2015-Feb-28 10:01 223 11 gusting 19 -11.1
2015-Feb-28 09:52 266 6 gusting 18 -11.1
2015-Feb-28 09:41 228 7 gusting 19 -11.1
2015-Feb-28 09:32 244 9 gusting 20 -11.1
2015-Feb-28 09:21 287 10 gusting 19 -11.1
2015-Feb-28 09:11 256 11 gusting 20 -11.1
2015-Feb-28 09:01 269 11 gusting 19 -11.1
2015-Feb-28 08:52 264 6 gusting 19 -11.1
2015-Feb-28 08:41 247 6 gusting 19 -11.1
2015-Feb-28 08:31 234 8 gusting 19 -11.1
2015-Feb-28 08:21 281 11 gusting 17 -11.1
2015-Feb-28 08:11 287 9 gusting 21 -11.1
2015-Feb-28 08:01 290 6 gusting 14 -11.1
2015-Feb-28 07:51 274 12 gusting 19 -11.1
2015-Feb-28 07:41 299 7 gusting 17 -11.1
2015-Feb-28 07:31 248 11 gusting 18 -11.1
2015-Feb-28 07:21 256 8 gusting 19 -10.6
2015-Feb-28 07:11 286 6 gusting 15 -10.6
2015-Feb-28 07:01 281 6 gusting 19 -10.6
2015-Feb-28 06:51 238 9 gusting 18 -10.6
2015-Feb-28 05:41 275 6 gusting 18 -10.0
2015-Feb-28 05:31 260 6 gusting 18 -10.0
2015-Feb-28 05:21 258 6 gusting 21 -10.0
2015-Feb-28 05:11 257 9 gusting 17 -10.0
2015-Feb-28 05:01 266 6 gusting 19 -10.0
2015-Feb-28 04:51 257 9 gusting 19 -9.4
2015-Feb-28 04:41 265 9 gusting 19 -9.4
2015-Feb-28 04:31 234 13 gusting 24 -9.4
2015-Feb-28 04:21 238 12 gusting 19 -9.4
2015-Feb-28 04:11 281 8 gusting 21 -9.4
2015-Feb-28 04:01 251 10 gusting 21 -9.4
2015-Feb-28 03:51 263 14 gusting 25 -8.9
2015-Feb-28 03:41 261 15 gusting 22 -8.9
2015-Feb-28 03:31 259 12 gusting 19 -8.9
2015-Feb-28 03:21 279 12 gusting 25 -8.9
2015-Feb-28 03:11 242 12 gusting 26 -8.3
2015-Feb-28 03:01 250 9 gusting 25 -8.3
2015-Feb-28 02:51 263 10 gusting 19 -8.3
2015-Feb-28 02:41 265 10 gusting 19 -7.8
2015-Feb-28 02:32 294 6 gusting 19 -7.8
2015-Feb-28 02:21 249 10 gusting 22 -7.8
2015-Feb-28 02:11 238 12 gusting 20 -7.2
2015-Feb-28 02:01 274 9 gusting 19 -7.2
2015-Feb-28 01:51 248 7 gusting 19 -6.7
2015-Feb-28 01:41 244 13 gusting 19 -6.7
2015-Feb-28 01:31 271 10 gusting 21 -6.1
2015-Feb-28 01:21 285 8 gusting 16 -6.1
2015-Feb-28 01:11 297 13 gusting 21 -6.1
2015-Feb-28 01:02 252 9 gusting 23 -6.1
2015-Feb-28 00:51 260 9 gusting 26 -5.6
2015-Feb-28 00:41 254 13 gusting 19 -5.6
2015-Feb-28 00:31 229 12 gusting 21 -5.6
2015-Feb-28 00:21 269 12 gusting 22 -5.6
2015-Feb-28 00:11 286 11 gusting 19 -5.0
2015-Feb-28 00:01 250 13 gusting 22 -5.0
2015-Feb-27 23:52 235 13 gusting 22 -5.0
2015-Feb-27 23:41 228 11 gusting 26 -5.0
2015-Feb-27 23:32 249 17 gusting 23 -5.0
2015-Feb-27 23:21 257 11 gusting 22 -5.0
2015-Feb-27 23:11 267 13 gusting 23 -5.0
2015-Feb-27 23:01 255 16 gusting 23 -4.4
2015-Feb-27 22:51 252 13 gusting 24 -4.4
2015-Feb-27 22:41 279 13 gusting 19 -4.4
2015-Feb-27 22:31 251 11 gusting 18 -3.9
2015-Feb-27 22:21 249 11 gusting 18 -3.9
2015-Feb-27 22:11 253 13 gusting 19 -3.9
2015-Feb-27 22:01 274 12 gusting 19 -3.9
2015-Feb-27 21:51 267 12 gusting 17 -3.9
2015-Feb-27 21:41 254 10 gusting 18 -3.9
2015-Feb-27 21:31 261 5 gusting 19 -3.9
2015-Feb-27 21:21 241 7 gusting 18 -3.9
2015-Feb-27 21:11 242 8 gusting 19 -3.9
2015-Feb-27 21:01 242 8 gusting 17 -3.9
2015-Feb-27 20:51 242 6 gusting 15 -3.9
2015-Feb-27 20:41 232 7 gusting 16 -3.9
2015-Feb-27 20:31 237 8 gusting 17 -3.9
2015-Feb-27 20:21 248 6 gusting 16 -3.9
2015-Feb-27 20:11 214 9 gusting 19 -3.3
2015-Feb-27 20:01 241 10 gusting 20 -3.3
2015-Feb-27 19:51 248 9 gusting 17 -3.3
2015-Feb-27 19:41 249 10 gusting 16 -2.8
2015-Feb-27 19:32 246 9 gusting 15 -2.8
2015-Feb-27 19:21 249 7 gusting 17 -2.8
2015-Feb-27 19:11 253 9 gusting 16 -2.8
2015-Feb-27 19:01 254 12 gusting 17 -2.8
2015-Feb-27 18:51 254 11 gusting 17 -2.8
2015-Feb-27 18:41 246 9 gusting 19 -2.8
2015-Feb-27 18:32 259 9 gusting 15 -2.2
2015-Feb-27 18:21 248 6 gusting 17 -2.8
2015-Feb-27 18:11 248 10 gusting 16 -2.8
2015-Feb-27 18:01 240 7 gusting 14 -2.8
2015-Feb-27 17:51 259 11 gusting 16 -2.8
2015-Feb-27 17:41 233 7 gusting 16 -2.8
2015-Feb-27 17:31 283 6 gusting 14 -2.8
2015-Feb-27 17:21 315 8 gusting 14 -2.8
2015-Feb-27 17:11 279 9 gusting 13 -3.3
2015-Feb-27 17:01 225 8 gusting 16 -3.3
2015-Feb-27 16:51 262 6 gusting 12 -3.3
2015-Feb-27 16:41 258 4 gusting 15 -3.3
2015-Feb-27 16:31 257 9 gusting 15 -3.3
2015-Feb-27 16:21 269 9 gusting 13 -3.9
2015-Feb-27 16:11 244 5 gusting 11 -3.9
2015-Feb-27 16:01 295 3 gusting 11 -3.9
2015-Feb-27 15:51 270 5 gusting 12 -3.9
2015-Feb-27 15:41 265 6 gusting 10 -3.9
2015-Feb-27 15:31 281 6 gusting 11 -3.9
2015-Feb-27 15:21 245 6 gusting 11 -4.4
2015-Feb-27 15:11 307 4 gusting 9 -4.4
2015-Feb-27 15:01 279 4 gusting 8 -4.4